Volver al catálogo

SL-14 DEB

ActivoPO
NORAD 25227·DEBRIS·🇷🇺 Russia

Lanzado Aug 18, 1987 desde Plesetsk Cosmodrome

Loading…

Próximos Pases (próximas 24 horas)

TLE

ActualizadoSource: Space-Track

Época: Sep 13, 2026, 20:31 UTC

1 25227U 87068BE  26256.85515528  .00007260  00000-0  16904-2 0  9994
2 25227  82.5179 200.0244 0014856  26.0546 334.1398 14.54688780469844

Sigue SL-14 DEB en tiempo real con AllMySat

Download on the App Store